Satellite: AEROCUB3
Catalog number: 35005
Epoch time:      10112.54763207
Element set:     287
Inclination:      040.4709 deg
RA of node:       181.7570 deg
Eccentricity:    0.0019204
Arg of perigee:   329.2488 deg
Mean anomaly:     030.7203 deg
Mean motion:   15.48024893 rev/day
Decay rate:     2.8030e-04 rev/day^2
Epoch rev:            5211
Checksum:              265

Satellite: DRAGNSAT
Catalog number: 35690
Epoch time:      10076.22711312
Element set:     316
Inclination:      051.6170 deg
RA of node:       315.4586 deg
Eccentricity:    0.0004999
Arg of perigee:   310.9891 deg
Mean anomaly:     057.3269 deg
Mean motion:   16.42150010 rev/day
Decay rate:   5.715194e-02 rev/day^2
Epoch rev:            3656
Checksum:              289

Satellite: POLLUX
Catalog number: 35693
Epoch time:      10087.99866888
Element set:     352
Inclination:      051.6099 deg
RA of node:       254.5746 deg
Eccentricity:    0.0006270
Arg of perigee:   294.4866 deg
Mean anomaly:     097.5899 deg
Mean motion:   16.52338462 rev/day
Decay rate:  2.3496735e-01 rev/day^2
Epoch rev:            3839
Checksum:              384

Satellite: CASTOR
Catalog number: 35694
Epoch time:      10112.87947127
Element set:     306
Inclination:      051.6356 deg
RA of node:       134.5764 deg
Eccentricity:    0.0005489
Arg of perigee:   012.1850 deg
Mean anomaly:     347.9292 deg
Mean motion:   15.94517130 rev/day
Decay rate:     6.4044e-04 rev/day^2
Epoch rev:            4221
Checksum:              291

Satellite: METEOR-M
Catalog number: 35865
Epoch time:      10112.75177392
Element set:     230
Inclination:      098.7633 deg
RA of node:       166.9326 deg
Eccentricity:    0.0002351
Arg of perigee:   142.3756 deg
Mean anomaly:     217.7553 deg
Mean motion:   14.21829731 rev/day
Decay rate:       1.76e-06 rev/day^2
Epoch rev:            3084
Checksum:              293

Satellite: RS-38
Catalog number: 35869
Epoch time:      10112.72918156
Element set:     236
Inclination:      098.7616 deg
RA of node:       166.9378 deg
Eccentricity:    0.0004825
Arg of perigee:   154.8256 deg
Mean anomaly:     205.3127 deg
Mean motion:   14.21979904 rev/day
Decay rate:       1.77e-06 rev/day^2
Epoch rev:            3084
Checksum:              330

/EX


_______________________________________________
Via the Keps mailing list courtesy of AMSAT-NA
http://amsat.org/mailman/listinfo/keps

--- ViaMAIL!/WC v1.60d
 * Origin: Chowdanet (401-724-4410) telnet://chowdanet.com  (1:323/120)